Location: Cronhütte
(48.9135°N, 9.6869°E)
Time: 17:06:17
(UTC+00:00)

FORMOSAT 3E - Pass Details

Date: 09 May 2025
Orbit: 742 x 834 km, 72.0° (Epoch: 13 May)

Event Time Altitude Azimuth Distance (km) Brightness Sun altitude
Rises 22:22:23 0° 328° (NNW) 3,208 12.5 -22.3°
Reaches altitude 10° 22:24:49 10° 323° (NW) 2,288 11.4 -22.4°
Maximum altitude 22:29:44 44° 252° (WSW) 1,046 8.6 -22.6°
Enters shadow 22:30:42 40° 222° (SW) 1,123 8.5 -22.6°
